Regional Weather Roundup
Issued by NWS Wakefield, VA

Home | Current Version | Previous Version | Graphics & Text | Print | Product List | Glossary On
Versions: 1 2 3 4 5 6 7 8 9 10 11 12 13 14 15 16 17 18 19 20 21 22 23 24 25 26 27
000
ASUS41 KAKQ 242015
RWRAKQ

REGIONAL WEATHER ROUNDUP
NATIONAL WEATHER SERVICE WAKEFIELD VA
400 PM EDT SUN JUL 24 2016

Note: "fair" indicates few or no clouds below 12,000 feet with no
significant weather and/or obstructions to visibility. * = Denotes
station may not report precipitation (e.g., rain,snow,etc.),
thunder or fog.

VAZ042-051-052>054-056-242100-
NORTHERN VIRGINIA

CITY           SKY/WX    TMP DP  RH WIND       PRES   REMARKS
WASH NATIONAL  PTSUNNY   96  67  38 SE5       29.96F HX 100
DULLES         PTSUNNY   95  64  35 S8        29.96F HX  97
FORT BELVOIR   FAIR      96  64  33 SW7       29.96F HX  98
QUANTICO       FAIR      93  68  43 S5        29.97F HX  97
FREDERICKSBRG*   N/A     97  68  39 S6        29.95F HX 101
STAFFORD*      FAIR      95  65  37 S3        30.01F HX  97
WARRENTON      FAIR      96  59  29 S9        29.97F HX  95
CULPEPER*      FAIR      95  70  44 CALM      29.97F HX 101
MANASSAS*      SUNNY     95  64  36 CALM      29.97F HX  97
LEESBURG*      FAIR      97  70  41 SW3       29.97F HX 103
WINCHESTER     PTSUNNY   95  64  36 S7        29.97F HX  97
FRONT ROYAL*   FAIR      95  72  46 SE5       29.97F HX 103
LURAY*         FAIR      93  72  49 CALM      29.99F HX 100
$$

VAZ048-049-060>072-079>083-242100-
CENTRAL AND SOUTH CENTRAL VIRGINIA

CITY           SKY/WX    TMP DP  RH WIND       PRES   REMARKS
RICHMOND       PTSUNNY   94  73  50 SW7       29.96F HX 103
CHESTERFIELD*  FAIR      97  70  41 S3        29.98F HX 103
PETERSBURG*    FAIR      96  75  50 S3        29.98S HX 108
HANOVER        FAIR      98  72  42 VRB6      29.97F HX 107
TAPPAHANNOCK*  PTSUNNY  100  65  32 N3        29.97S HX 103
QUINTON*       FAIR      94  78  59 CALM      29.96S HX 108
CHARLOTTSVILLE FAIR      98  68  37 CALM      29.98F HX 103
GORDONSVILLE*  FAIR      94  71  46 SE3       29.97F HX 101
ORANGE*          N/A     95  64  36 CALM      30.00F HX  97
LOUISA*        FAIR      97  75  49 CALM      29.97F HX 109
BUMPASS*       FAIR      92  74  55 CALM      29.98F HX 102
FARMVILLE*     NOT AVBL
CREWE*         FAIR      98  73  45 CALM      29.97F HX 108
FORT PICKETT*  FAIR      94  75  54 S9        29.98F HX 104
CHASE CITY*    FAIR      96  70  42 S6        29.99F HX 103
CLARKSVILLE*   FAIR      95  72  46 S6        29.99F HX 103
SOUTH HILL*    FAIR      96  75  51 S8        30.04F HX 107
LAWRENCEVILLE* FAIR      97  73  45 SW7       29.98S HX 106
EMPORIA*       FAIR      97  72  44 S6        29.99S HX 105
$$

VAZ088>098-242100-
SOUTHEAST VIRGINIA

CITY           SKY/WX    TMP DP  RH WIND       PRES   REMARKS
NORFOLK        FAIR      96  75  50 NE7       29.96F HX 108
VIRGINIA BEACH PTSUNNY   98  77  50 E8        29.96S HX 113
NORFOLK NAVAL  PTSUNNY   97  71  42 NW6       29.97F HX 104
WEST POINT*    FAIR      95  75  51 SW5       29.96F HX 106
SALUDA*        FAIR      87  81  82 E5        29.96F HX 103
NEWPORT NEWS   FAIR      94  75  54 SW7       29.96F HX 105
LANGLEY AFB    FAIR      94  79  60 N8        29.96F HX 111
FORT EUSTIS    FAIR      97  79  55 VRB2      29.95F HX 116
WILLIAMSBURG*  FAIR     100  79  50 CALM      29.97F HX 119
HR EXEC AP*    FAIR      97  75  49 W6        29.98F HX 109
FRANKLIN*      PTSUNNY   95  73  48 W7        29.97F HX 104
US460-WAKEFLD  FAIR      97  71  42 SW7       29.97F HX 104
$$

VAZ020-022-025-037-045-242100-
WEST CENTRAL AND SOUTHWEST VIRGINIA

CITY           SKY/WX    TMP DP  RH WIND       PRES   REMARKS
STAUNTON*      FAIR      92  73  54 S6        30.03F HX 100
WAYNESBORO*    MOCLDY    92  74  54 S3        30.03F HX 101
HOT SPRINGS VA NOT AVBL
LYNCHBURG      FAIR      94  66  39 SW8       30.02F HX  97
DANVILLE       FAIR      94  70  45 SW5       30.00F HX 100
SOUTH BOSTON*  FAIR      96  71  44 S6        29.99F HX 103
MARTINSVILLE   FAIR      94  69  44 S5        30.04F HX  99
ROANOKE        FAIR      97  66  36 S12       30.03F HX 100
BLACKSBURG     PTSUNNY   92  69  46 SW3       30.11F HX  97
DUBLIN*        FAIR      93  64  37 CALM      30.10F HX  95
MARION*        FAIR      92  64  38 SW5       30.13F
HILLSVILLE*    FAIR      88  65  46 SW9       30.13F
RICHLANDS*     MOCLDY    89  70  52 W5        30.13F
WISE*          PTSUNNY   88  54  31 SW5       30.15F
ABINGDON*      FAIR      91  66  43 NW5       30.09S
$$

MDZ021>025-VAZ099-100-242100-
SOUTHERN MARYLAND AND THE DELMARVA PENINSULA

CITY           SKY/WX    TMP DP  RH WIND       PRES   REMARKS
PATUXENT RIVER PTSUNNY   94  68  42 SE7       29.96F HX  98
BAY BRIDGE APT MOSUNNY   88  72  58 NW5       29.97F
LEONARDTOWN    SUNNY     93  61  33 E6        29.98F
DOVER          SUNNY     88  73  60 E7        29.97S HX  96
GEORGETOWN     PTSUNNY   92  62  36 VRB7      29.98F
EASTON         MOSUNNY   93  72  49 S5        30.00F HX 100
CAMBRIDGE      SUNNY     91  66  43 S5        29.96F
SALISBURY      MOSUNNY   92  66  42 E3        29.97F
OCEAN CITY     SUNNY     83  74  74 E7        29.98F
WALLOPS ISLAND FAIR      89  72  56 NE7       29.98F HX  96
ACCOMACK*      FAIR      88  72  58 CALM      29.98F
$$

NCZ012>017-030>032-242100-
NORTH CENTRAL AND EASTERN NORTH CAROLINA

CITY           SKY/WX    TMP DP  RH WIND       PRES   REMARKS
ROANOKE RAPIDS FAIR      91  75  59 SW7       29.99S HX 102
RALEIGH        PTSUNNY   95  72  47 VRB7      30.01F HX 103
ELIZABETH CITY SUNNY     94  73  50 S10       29.98F HX 103
AHOSKIE*       SUNNY     92  77  61 CALM      29.99S HX 105
EDENTON*       SUNNY     96  71  45 SW7       29.99F HX 103
CURRITUCK*     PTSUNNY   95  74  50 S5        29.98F HX 105
KILL DEVIL HLS SUNNY     99  76  47 S5        29.98F HX 113
MANTEO           N/A     89  81  79 S15       29.99F HX 107
CAPE HATTERAS  SUNNY     88  79  74 SW10      30.02F HX 103
TARBORO*       FAIR      95  75  53 S3        30.00F HX 107
GOLDSBORO      SUNNY     96  72  45 SW10      29.98F HX 104
WASHINGTON     SUNNY     93  75  55 SW6       29.99F HX 104
GREENVILLE     SUNNY     95  75  52 SW5       30.01F HX 107
NEW BERN       PTSUNNY   92  77  61 S9        30.01F HX 105
WILMINGTON     MOSUNNY   91  75  59 S10       30.01F HX 101
$$

VAZ048-242100-
ELSEWHERE

CITY           SKY/WX    TMP DP  RH WIND       PRES   REMARKS
HARRISBURG PA  PTSUNNY   92  70  48 SE7       29.95F HX  97
BALTIMORE      PTSUNNY   93  65  39 SE7       29.96F HX  95
ANNAPOLIS      MOSUNNY   89  71  55 SE9       29.96F HX  95
ANDREWS AFB    FAIR      92  66  42 E8        29.97F
PHILADELPHIA   PTSUNNY   94  59  31 SW12G17   29.96S
GREENSBORO     CLOUDY    95  67  39 S10       30.01F HX  99
ROCKY MOUNT    SUNNY     94  75  54 SW8       30.00F HX 105
$$

VAZ100-242100-
MARINE

STATION/POSITION TIME  TEMP    WIND        PRES    WAVE   SWELL
                       AIR SEA DIR/SP/G            HT/PER HT/PER
                 (UTC) (F)     (DEG/KT/KT) (MB)    (FT/S) (FT/S)
BRANDYWINE LGT   1900   77     160/  6/  6   N/A
CAPE MAY NJ      1900   83 70  160/  9/ 12 1015.2F
LEWES DE         1900   85 77  140/  6/  9 1015.5F
OCEAN-CITY-INLET 1900   83 69  120/  4/  6 1016.2F
WACHAPREAGUE VA  1900   83 89   80/  4/  6 1015.6F
THOMAS POINT MD  2000   87 84     CALM     1016.3F
GOOSES REEF MD   1900   87 87  350/  4/  4 1016.3F   1
COVE POINT MD    1900   87     100/  1/  2 1015.8F
SOLOMONS ISLAND  1900   87 86   80/  7/  8   N/A
BISHOPS HEAD MD  1900   89      CALM  /  2 1015.5F
PINEY POINT MD   1900          160/  9/ 10   N/A
POTOMAC MD       1900   87 86  100/  4/  6 1014.2F   0
CAMBRIDGE MD     1900   91 85   70/  4/  8 1014.2F
LEWISETTA VA     1900   87 86   90/  8/  9 1014.9F
RAPPAHANNOCK LGT 1900           CALM  /  1 1015.9F
STINGRAY PT      1900   87 87   40/  6/  8 1015.6F   1
YORK RVR RNG VA  1900   87     110/  7/  8 1014.7F
YORKTOWN VA      1900   92 84  320/  3/  6 1014.7F
JAMESTOWN VA     1900   92 88  330/  2/  4   N/A     0
DOMINION TERM VA 1900   89     200/  5/  5 1015.1F
KIPTOPEKE VA     1900      80   CALM  /  1   N/A
CHES BAY BRIDGE  1900   83 71   70/  9/ 11 1015.0F
CAPE HENRY VA    1900   83      90/  6/  8   N/A
WILLOUBY STN VA  1900   90     250/  7/  7   N/A
CAPE HENRY BUOY  1912      83                N/A     2/ 9
1ST LANDING BUOY 1900   82 80  100/  8/  8 1014.8F
CAPE CHARLES BUO 1926      79                N/A     2/ 9
OFFSHORE WE BUOY 1921      83                N/A     2/ 9
64NM E OF VA BCH 1950   82 81  210/  8/  8 1015.7F   2/ 4   2/ 4
DUCK PIER NC     1900   90 60  230/  8/ 10 1015.1F
44100 DUCK FRF   1905      81                N/A     1/ 8
44056 DUCK FRF   1911      75                N/A     1/ 9
OREGON INLET NC  1906   85 85  190/ 16/ 18 1016.0F
HATTERAS NC      1900   86 83  210/ 10/ 13 1016.5F
DIAMOND SHLS NC  1950   85 86  230/ 14/ 16 1016.7F   2/ 8   2/ 8
CAPE LOOKOUT NC  1900   87     220/ 10/ 13 1016.8F
$$




USA.gov is the U.S. government's official web portal to all federal, state and local government web resources and services.